Zurück zum Katalog

STARLINK-2624

AktivKommunikationVLEO
NORAD 48358·PAYLOAD·🇺🇸 United States

Gestartet May 4, 2021 von Cape Canaveral Space Force Station

Loading…

Nächste Überflüge (nächste 24 Stunden)

TLE

AktuellSource: CelesTrak SupGP

Epoche: Sep 14, 2026, 12:51 UTC

1 48358C 21038F   26257.53590278 -.00027941  00000+0 -89923-3 0  2578
2 48358  53.1602 199.2770 0001536  84.3797 140.6842 15.31690394    12

Verfolge STARLINK-2624 in Echtzeit mit AllMySat

Download on the App Store